| time (UTC) | temp F | wind direction | speed knots | gust knots | rain 1hr in | rain 24hr in | rain mn in | humidity % | barometer mb |
| 20260505053503 | 67 | 204 | 7.8 | 18.2 | 0.00 | 0.00 | 0.00 | 48 | 1010.5 |
| 20260505053002 | 67 | 204 | 7.0 | 22.6 | 0.00 | 0.00 | 0.00 | 49 | 1010.5 |
| 20260505052501 | 67 | 203 | 7.0 | 22.6 | 0.00 | 0.00 | 0.00 | 48 | 1010.5 |
| 20260505052002 | 67 | 202 | 7.0 | 22.6 | 0.00 | 0.00 | 0.00 | 49 | 1010.5 |
| 20260505051502 | 66 | 199 | 6.1 | 18.2 | 0.00 | 0.00 | 0.00 | 50 | 1010.5 |
| 20260505051002 | 65 | 212 | 7.0 | 16.5 | 0.00 | 0.00 | 0.00 | 52 | 1010.5 |
| 20260505050502 | 63 | 221 | 7.0 | 13.0 | 0.00 | 0.00 | 0.00 | 56 | 1010.5 |
| 20260505041002 | 59 | 242 | 3.5 | 8.7 | 0.00 | 0.00 | 0.00 | 68 | 1010.5 |
| 20260505040501 | 58 | 235 | 2.6 | 7.0 | 0.00 | 0.00 | 0.00 | 68 | 1010.4 |
| 20260505040005 | 58 | 227 | 2.6 | 5.2 | 0.00 | 0.00 | 0.00 | 69 | 1010.4 |
| 20260505035003 | 59 | 233 | 2.6 | 5.2 | 0.00 | 0.00 | 0.00 | 67 | 1010.4 |
| 20260505034501 | 59 | 240 | 1.7 | 5.2 | 0.00 | 0.00 | 0.00 | 66 | 1010.3 |
| 20260505034002 | 60 | 244 | 2.6 | 7.0 | 0.00 | 0.00 | 0.00 | 65 | 1010.4 |
| 20260505033501 | 60 | 250 | 2.6 | 7.0 | 0.00 | 0.00 | 0.00 | 64 | 1010.5 |
| 20260505033003 | 61 | 259 | 2.6 | 6.1 | 0.00 | 0.00 | 0.00 | 63 | 1010.5 |
| 20260505032002 | 62 | 244 | 2.6 | 5.2 | 0.00 | 0.00 | 0.00 | 61 | 1010.5 |
| 20260505030502 | 63 | 225 | 2.6 | 6.1 | 0.00 | 0.00 | 0.00 | 57 | 1010.6 |
| 20260505030004 | 64 | 226 | 3.5 | 7.8 | 0.00 | 0.00 | 0.00 | 55 | 1010.6 |
| 20260505025501 | 64 | 226 | 3.5 | 7.8 | 0.00 | 0.00 | 0.00 | 55 | 1010.6 |
| 20260505025002 | 64 | 230 | 5.2 | 8.7 | 0.00 | 0.00 | 0.00 | 54 | 1010.6 |
| 20260505024502 | 65 | 229 | 5.2 | 10.4 | 0.00 | 0.00 | 0.00 | 53 | 1010.8 |
| 20260505024003 | 66 | 224 | 5.2 | 10.4 | 0.00 | 0.00 | 0.00 | 51 | 1010.9 |
| 20260505023501 | 66 | 212 | 3.5 | 9.6 | 0.00 | 0.00 | 0.00 | 51 | 1011.0 |
| 20260505023002 | 66 | 196 | 5.2 | 13.9 | 0.00 | 0.00 | 0.00 | 51 | 1011.0 |
| 20260505022002 | 65 | 199 | 5.2 | 15.6 | 0.00 | 0.00 | 0.00 | 53 | 1010.9 |
| 20260505021501 | 65 | 195 | 5.2 | 11.3 | 0.00 | 0.00 | 0.00 | 54 | 1010.9 |
| 20260505021003 | 65 | 196 | 3.5 | 11.3 | 0.00 | 0.00 | 0.00 | 54 | 1011.0 |
| 20260505020502 | 65 | 205 | 2.6 | 9.6 | 0.00 | 0.00 | 0.00 | 53 | 1010.9 |
| 20260505020003 | 65 | 201 | 2.6 | 7.0 | 0.00 | 0.00 | 0.00 | 53 | 1010.9 |
| 20260505015501 | 66 | 181 | 3.5 | 10.4 | 0.00 | 0.00 | 0.00 | 52 | 1010.8 |
| 20260505014502 | 67 | 183 | 3.5 | 13.9 | 0.00 | 0.00 | 0.00 | 50 | 1010.7 |
| 20260505014002 | 67 | 195 | 5.2 | 11.3 | 0.00 | 0.00 | 0.00 | 49 | 1010.7 |
| 20260505013002 | 66 | 220 | 3.5 | 10.4 | 0.00 | 0.00 | 0.00 | 50 | 1010.7 |
| 20260505012502 | 66 | 220 | 5.2 | 8.7 | 0.00 | 0.00 | 0.00 | 51 | 1010.6 |
| 20260505012003 | 66 | 220 | 5.2 | 13.9 | 0.00 | 0.00 | 0.00 | 52 | 1010.6 |
| 20260505011501 | 66 | 217 | 5.2 | 13.9 | 0.00 | 0.00 | 0.00 | 52 | 1010.6 |
| 20260505011003 | 66 | 212 | 5.2 | 10.4 | 0.00 | 0.00 | 0.00 | 53 | 1010.5 |
| 20260505010502 | 66 | 197 | 3.5 | 8.7 | 0.00 | 0.00 | 0.00 | 53 | 1010.4 |
| 20260505010002 | 66 | 183 | 3.5 | 10.4 | 0.00 | 0.00 | 0.00 | 53 | 1010.3 |
| 20260505005002 | 66 | 194 | 7.0 | 20.9 | 0.00 | 0.00 | 0.00 | 53 | 1010.1 |
| 20260505004502 | 66 | 185 | 7.0 | 20.9 | 0.00 | 0.00 | 0.00 | 52 | 1010.1 |
| 20260505004003 | 66 | 179 | 6.1 | 18.2 | 0.00 | 0.00 | 0.00 | 52 | 1009.9 |
| 20260505003502 | 66 | 187 | 7.0 | 18.2 | 0.00 | 0.00 | 0.00 | 53 | 1009.9 |
| 20260505003003 | 66 | 185 | 6.1 | 16.5 | 0.00 | 0.00 | 0.00 | 53 | 1009.8 |
| 20260505002502 | 66 | 187 | 5.2 | 15.6 | 0.00 | 0.00 | 0.00 | 53 | 1009.8 |
| 20260505002002 | 66 | 197 | 5.2 | 15.6 | 0.00 | 0.00 | 0.00 | 53 | 1009.8 |
| 20260505001502 | 66 | 193 | 5.2 | 15.6 | 0.00 | 0.00 | 0.00 | 53 | 1009.8 |
| 20260505001002 | 66 | 185 | 3.5 | 18.2 | 0.00 | 0.00 | 0.00 | 53 | 1009.8 |
| 20260505000501 | 66 | 187 | 5.2 | 18.2 | 0.00 | 0.00 | 0.00 | 53 | 1009.7 |
| 20260505000002 | 66 | 196 | 5.2 | 13.0 | 0.00 | 0.00 | 0.00 | 53 | 1009.8 |
| 20260504235502 | 66 | 205 | 6.1 | 15.6 | 0.00 | 0.00 | 0.00 | 53 | 1009.8 |
| 20260504235003 | 67 | 208 | 6.1 | 15.6 | 0.00 | 0.00 | 0.00 | 54 | 1009.9 |
| 20260504234502 | 67 | 204 | 6.1 | 13.0 | 0.00 | 0.00 | 0.00 | 53 | 1009.9 |
| 20260504234002 | 67 | 205 | 5.2 | 13.0 | 0.00 | 0.00 | 0.00 | 53 | 1009.7 |
| 20260504233501 | 67 | 206 | 3.5 | 11.3 | 0.00 | 0.00 | 0.00 | 52 | 1009.7 |
| 20260504232502 | 67 | 170 | 0.9 | 5.2 | 0.00 | 0.00 | 0.00 | 57 | 1009.6 |
| 20260504232002 | 67 | 172 | 1.7 | 6.1 | 0.00 | 0.00 | 0.00 | 53 | 1009.5 |
| 20260504231003 | 68 | 168 | 2.6 | 8.7 | 0.00 | 0.00 | 0.00 | 53 | 1009.5 |
| 20260504230502 | 68 | 216 | 3.5 | 9.6 | 0.00 | 0.00 | 0.00 | 52 | 1009.7 |
| 20260504230003 | 68 | 239 | 5.2 | 10.4 | 0.00 | 0.00 | 0.00 | 48 | 1010.0 |
| 20260504225502 | 69 | 228 | 3.5 | 10.4 | 0.00 | 0.00 | 0.00 | 49 | 1010.4 |
| 20260504224003 | 71 | 225 | 3.5 | 10.4 | 0.00 | 0.00 | 0.00 | 42 | 1009.8 |
| 20260504223502 | 71 | 212 | 3.5 | 8.7 | 0.00 | 0.00 | 0.00 | 43 | 1009.8 |
| 20260504222501 | 71 | 207 | 6.1 | 15.6 | 0.00 | 0.00 | 0.00 | 40 | 1009.7 |
| 20260504222002 | 71 | 203 | 5.2 | 15.6 | 0.00 | 0.00 | 0.00 | 41 | 1009.5 |
| 20260504221002 | 71 | 189 | 5.2 | 18.2 | 0.00 | 0.00 | 0.00 | 41 | 1009.3 |
| 20260504220502 | 71 | 189 | 5.2 | 18.2 | 0.00 | 0.00 | 0.00 | 42 | 1009.3 |
| 20260504220004 | 71 | 188 | 6.1 | 18.2 | 0.00 | 0.00 | 0.00 | 42 | 1009.3 |
| 20260504215501 | 72 | 192 | 5.2 | 14.8 | 0.00 | 0.00 | 0.00 | 42 | 1009.4 |
| 20260504215002 | 72 | 199 | 6.1 | 18.2 | 0.00 | 0.00 | 0.00 | 41 | 1009.5 |
| 20260504214502 | 72 | 197 | 7.0 | 18.2 | 0.00 | 0.00 | 0.00 | 41 | 1009.4 |
| 20260504213002 | 73 | 195 | 7.0 | 19.1 | 0.00 | 0.00 | 0.00 | 38 | 1009.3 |
| 20260504212501 | 74 | 203 | 6.1 | 17.4 | 0.00 | 0.00 | 0.00 | 40 | 1009.3 |
| 20260504212003 | 73 | 199 | 7.8 | 20.9 | 0.00 | 0.00 | 0.00 | 39 | 1009.3 |
| 20260504211002 | 74 | 202 | 7.8 | 21.7 | 0.00 | 0.00 | 0.00 | 39 | 1009.1 |
| 20260504210501 | 74 | 200 | 7.0 | 21.7 | 0.00 | 0.00 | 0.00 | 38 | 1009.0 |
| 20260504210003 | 75 | 200 | 6.1 | 21.7 | 0.00 | 0.00 | 0.00 | 39 | 1009.2 |
| 20260504205501 | 75 | 204 | 6.1 | 16.5 | 0.00 | 0.00 | 0.00 | 38 | 1009.1 |
| 20260504205003 | 75 | 208 | 6.1 | 15.6 | 0.00 | 0.00 | 0.00 | 37 | 1009.0 |
| 20260504204501 | 75 | 212 | 6.1 | 15.6 | 0.00 | 0.00 | 0.00 | 40 | 1009.0 |
| 20260504204004 | 74 | 202 | 7.0 | 22.6 | 0.00 | 0.00 | 0.00 | 38 | 1009.0 |
| 20260504203502 | 74 | 203 | 7.8 | 22.6 | 0.00 | 0.00 | 0.00 | 40 | 1009.1 |
| 20260504203003 | 74 | 205 | 7.0 | 20.9 | 0.00 | 0.00 | 0.00 | 39 | 1009.2 |
| 20260504202002 | 74 | 194 | 6.1 | 18.2 | 0.00 | 0.00 | 0.00 | 39 | 1009.3 |
| 20260504201502 | 74 | 178 | 5.2 | 15.6 | 0.00 | 0.00 | 0.00 | 41 | 1009.4 |
| 20260504201002 | 74 | 186 | 6.1 | 18.2 | 0.00 | 0.00 | 0.00 | 40 | 1009.6 |
| 20260504200502 | 74 | 194 | 7.0 | 18.2 | 0.00 | 0.00 | 0.00 | 42 | 1009.7 |
| 20260504200003 | 74 | 199 | 7.0 | 18.2 | 0.00 | 0.00 | 0.00 | 39 | 1009.7 |
| 20260504195502 | 74 | 194 | 5.2 | 13.0 | 0.00 | 0.00 | 0.00 | 42 | 1009.9 |
| 20260504194502 | 73 | 194 | 6.1 | 16.5 | 0.00 | 0.00 | 0.00 | 41 | 1009.9 |
| 20260504194002 | 73 | 193 | 7.0 | 16.5 | 0.00 | 0.00 | 0.00 | 39 | 1009.8 |
| 20260504193003 | 72 | 196 | 7.0 | 23.5 | 0.00 | 0.00 | 0.00 | 41 | 1010.1 |
| 20260504192502 | 72 | 195 | 7.0 | 20.9 | 0.00 | 0.00 | 0.00 | 39 | 1010.2 |
| 20260504192003 | 72 | 193 | 7.0 | 16.5 | 0.00 | 0.00 | 0.00 | 43 | 1010.3 |
| 20260504191003 | 73 | 198 | 7.0 | 17.4 | 0.00 | 0.00 | 0.00 | 39 | 1010.2 |
| 20260504190502 | 73 | 207 | 7.8 | 23.5 | 0.00 | 0.00 | 0.00 | 39 | 1010.2 |
| 20260504190003 | 73 | 204 | 7.8 | 23.5 | 0.00 | 0.00 | 0.00 | 36 | 1010.3 |
| 20260504185502 | 74 | 207 | 7.0 | 16.5 | 0.00 | 0.00 | 0.00 | 38 | 1010.2 |
| 20260504185002 | 74 | 221 | 7.8 | 17.4 | 0.00 | 0.00 | 0.00 | 39 | 1010.2 |
| 20260504184502 | 73 | 232 | 9.6 | 17.4 | 0.00 | 0.00 | 0.00 | 36 | 1010.4 |
| 20260504184004 | 73 | 237 | 9.6 | 17.4 | 0.00 | 0.00 | 0.00 | 37 | 1010.3 |
| 20260504183502 | 73 | 225 | 8.7 | 18.2 | 0.00 | 0.00 | 0.00 | 37 | 1010.4 |
| 20260504182002 | 73 | 193 | 6.1 | 16.5 | 0.00 | 0.00 | 0.00 | 38 | 1010.7 |
| 20260504181502 | 73 | 182 | 5.2 | 14.8 | 0.00 | 0.00 | 0.00 | 40 | 1010.7 |
| 20260504181002 | 73 | 191 | 6.1 | 13.9 | 0.00 | 0.00 | 0.00 | 39 | 1010.8 |
| 20260504180502 | 73 | 196 | 7.0 | 13.9 | 0.00 | 0.00 | 0.00 | 39 | 1011.0 |
| 20260504180003 | 73 | 204 | 7.8 | 19.1 | 0.00 | 0.00 | 0.00 | 38 | 1011.2 |
| 20260504175502 | 72 | 210 | 6.1 | 19.1 | 0.00 | 0.00 | 0.00 | 38 | 1011.0 |
| 20260504175002 | 72 | 203 | 6.1 | 18.2 | 0.00 | 0.00 | 0.00 | 40 | 1011.1 |
| 20260504174502 | 72 | 196 | 6.1 | 18.2 | 0.00 | 0.00 | 0.00 | 38 | 1011.2 |
| 20260504174004 | 72 | 193 | 7.0 | 19.1 | 0.00 | 0.00 | 0.00 | 39 | 1011.2 |
| 20260504173502 | 71 | 199 | 7.8 | 20.9 | 0.00 | 0.00 | 0.00 | 38 | 1011.2 |
| 20260504173002 | 72 | 202 | 7.8 | 20.9 | 0.00 | 0.00 | 0.00 | 37 | 1011.3 |
| 20260504172502 | 72 | 202 | 7.0 | 17.4 | 0.00 | 0.00 | 0.00 | 36 | 1011.5 |
| 20260504172002 | 73 | 195 | 6.1 | 17.4 | 0.00 | 0.00 | 0.00 | 39 | 1011.4 |
| 20260504171502 | 72 | 188 | 6.1 | 18.2 | 0.00 | 0.00 | 0.00 | 42 | 1011.5 |
| 20260504171003 | 72 | 192 | 6.1 | 18.2 | 0.00 | 0.00 | 0.00 | 39 | 1011.5 |
| 20260504151002 | 66 | 193 | 5.2 | 11.3 | 0.00 | 0.00 | 0.00 | 41 | 1013.3 |
| 20260504150502 | 65 | 209 | 6.1 | 14.8 | 0.00 | 0.00 | 0.00 | 42 | 1013.3 |
| 20260504141002 | 63 | 205 | 5.2 | 15.6 | 0.00 | 0.00 | 0.00 | 40 | 1013.2 |
| 20260504140502 | 63 | 195 | 3.5 | 15.6 | 0.00 | 0.00 | 0.00 | 45 | 1013.2 |
| 20260504130502 | 60 | 216 | 5.2 | 11.3 | 0.00 | 0.00 | 0.00 | 48 | 1013.8 |
| 20260504110502 | 45 | 244 | 2.6 | 6.1 | 0.00 | 0.00 | 0.00 | 71 | 1014.4 |
| 20260504100502 | 46 | 232 | 0.9 | 2.6 | 0.00 | 0.00 | 0.00 | 65 | 1014.2 |
| 20260504081502 | 46 | 199 | 1.7 | 3.5 | 0.00 | 0.00 | 0.00 | 63 | 1014.4 |
| 20260504081003 | 46 | 198 | 1.7 | 3.5 | 0.00 | 0.00 | 0.00 | 64 | 1014.4 |
| 20260504080502 | 46 | 197 | 1.7 | 3.5 | 0.00 | 0.00 | 0.00 | 64 | 1014.4 |